Find Starlink 33968

NORAD ID: 63883 Int'l Des: 2025-094 Owner: SPXS Country: US Constellation: starlink operational
LEOCIRCULAR

当前视图

正在加载3D地球...

About Starlink 33968

Starlink 33968 (NORAD 63883) is a starlink constellation satellite (v2 mini) launched May 10, 2025 by SPXS of US. It operates in LEO, CIRCULAR orbit with a mass of 575.00 kg.

关于 Starlink 33968

正在加载描述...

即将过境

Passes for default location (London). Set your location on the main map for personalized predictions.

高度历史

Loading altitude history...

两行轨道根数

1 63883U 25094V 26194.63108938 .00001922 00000-0 16880-3 0 9998
2 63883 70.0022 277.0867 0003444 268.1478 91.9287 14.98332725 66067
Epoch: Jul 13, 2026 • Age: 16 hours

当前状态

高度 594.7 km
远地点 / 近地点 N/A
速度 7.56 km/s
星下点 -68.11°S, 176.89°E
发射日期 May 10, 2025
运行时间 1.1 years
类型 internet

技术详情

分类 Payload
质量 575.00 kg
干质量 530.00 kg
总质量 575.00 kg
长度 0.30 m
直径 4.10 m
跨度 29.00 m
形状 Box + pan
制造商 SPXS
平台类型 Starlink V2MO
阶段状态 In Orbit
所有者/国家 SPXS/US

Most Searched